[[{"header":{"parameterUnit":"m.s-1","parameterCategory":1,"la1":30.2992,"la2":30.254,"lo1":-89.0895,"lo2":-89.0443,"dy":0.0025,"dx":0.0025,"nx":19,"ny":19,"refTime":"2026-04-14T21:00:00:Z","depth":0,"parameterNumber":2,"parameterNumberName":"U-component_of_WINDS"},"data":[0,0,0,-2.4129,-2.4128,-2.404,-2.404,-2.3948,-2.3947,0,0,0,0,0,0,0,0,0,0,0,-2.4169,-2.4168,-2.4129,-2.4128,-2.404,-2.404,-2.3948,-2.3947,0,0,0,0,0,0,0,0,0,0,0,-2.4169,-2.4168,-2.4168,-2.4127,-2.404,-2.404,-2.3948,-2.4007,0,0,0,0,0,0,0,0,0,0,-2.4088,-2.4137,-2.4168,-2.4168,-2.4127,-2.404,-2.404,-2.4009,-2.4003,-2.3997,0,-2.3995,0,-2.397,-2.3943,-2.3942,0,0,0,-2.4117,-2.4143,-2.4107,-2.4168,-2.4126,-2.4041,-2.4077,-2.4006,-2.3999,-2.3989,-2.3994,-2.399,-2.3969,-2.3942,-2.3942,-2.3943,-2.3944,0,0,-2.4122,-2.4159,-2.4112,-2.4104,-2.412,-2.408,-2.4074,-2.4001,-2.4009,-2.3994,-2.3987,-2.3967,-2.3942,-2.3941,-2.3943,-2.3943,0,0,0,-2.4143,-2.4163,-2.4129,-2.4108,-2.4091,-2.4077,-2.4071,-2.4012,-2.3998,-2.3986,-2.3966,-2.3941,-2.394,-2.3942,-2.3943,-2.4004,0,0,0,-2.4145,-2.4175,-2.4132,-2.4154,-2.4093,-2.405,-2.4084,-2.4003,-2.3993,-2.3967,-2.3941,-2.394,-2.3941,-2.3942,-2.4001,-2.4026,0,0,0,-2.417,-2.4178,-2.417,-2.4156,-2.412,-2.4051,-2.4032,-2.4,-2.3982,-2.3942,-2.3939,-2.3941,-2.3942,-2.3998,-2.4021,-2.4037,0,0,0,-2.4206,-2.4224,-2.4172,-2.4185,-2.4121,-2.409,-2.4032,-2.4007,-2.398,-2.3941,-2.3941,-2.3943,-2.3997,-2.4018,-2.4035,-2.4056,-2.4069,0,0,-2.425,-2.4231,-2.4236,-2.4186,-2.4174,-2.41,-2.4097,-2.4036,-2.3998,-2.3963,-2.3963,-2.4002,-2.4021,-2.4036,-2.4131,-2.4142,0,0,0,-2.4262,-2.4266,-2.4255,-2.4233,-2.4189,-2.4152,-2.4089,-2.4067,-2.4036,-2.3988,-2.4011,-2.4021,-2.4029,-2.4037,-2.4046,-2.405,-2.3949,-2.3949,-2.3948,-2.4376,-2.4328,-2.4333,-2.4275,-2.4254,-2.419,-2.4168,-2.4127,-2.4083,-2.409,-2.4078,-2.4142,-2.4153,-2.416,-2.4165,-2.4087,-2.4087,-2.4087,-2.4087,-2.4436,-2.4433,-2.4377,-2.4361,-2.431,-2.4296,-2.4236,-2.4205,-2.4184,-2.4146,-2.415,-2.4111,-2.4173,-2.4175,-2.4091,-2.4091,-2.409,-2.409,-2.409,-2.4504,-2.4494,-2.4469,-2.4433,-2.4411,-2.4351,-2.4335,-2.4288,-2.4244,-2.4249,-2.4232,-2.4231,-2.4223,-2.4244,-2.4245,-2.4245,-2.4245,-2.4245,-2.4245,-2.4584,-2.4554,-2.4546,-2.4503,-2.4484,-2.4452,-2.439,-2.4369,-2.4334,-2.4301,-2.4301,-2.4256,-2.4189,-2.4172,-2.4248,-2.4248,-2.4247,-2.4247,-2.4247,-2.466,-2.4637,-2.4624,-2.4605,-2.4551,-2.4533,-2.4475,-2.4437,-2.4413,-2.4407,-2.4362,-2.4321,-2.4297,-2.4289,-2.4275,-2.4373,-2.4373,-2.4373,-2.4373,-2.4717,-2.4702,-2.468,-2.4653,-2.4621,-2.4568,-2.4556,-2.4509,-2.4455,-2.4438,-2.4417,-2.4395,-2.439,-2.4369,-2.436,-2.4346,-2.446,-2.446,-2.446,-2.4761,-2.4741,-2.474,-2.4689,-2.4644,-2.4607,-2.4594,-2.4564,-2.4499,-2.4462,-2.4423,-2.4419,-2.4383,-2.4374,-2.4334,-2.4321,-2.4294,0,0]},{"header":{"parameterUnit":"m.s-1","parameterCategory":1,"la1":30.2992,"la2":30.254,"lo1":-89.0895,"lo2":-89.0443,"dy":0.0025,"dx":0.0025,"nx":19,"ny":19,"refTime":"2026-04-14T21:00:00:Z","depth":0,"parameterNumber":3,"parameterNumberName":"V-component_of_WINDS"},"data":[0,0,0,4.5019,4.5018,4.4996,4.4996,4.4964,4.4963,0,0,0,0,0,0,0,0,0,0,0,4.5025,4.5025,4.5019,4.5018,4.4996,4.4996,4.4964,4.4963,0,0,0,0,0,0,0,0,0,0,0,4.5025,4.5025,4.5024,4.5018,4.4996,4.4996,4.4964,4.4982,0,0,0,0,0,0,0,0,0,0,4.5004,4.5009,4.5025,4.5024,4.5018,4.4996,4.4996,4.4982,4.498,4.4973,0,4.4967,0,4.4965,4.4961,4.4961,0,0,0,4.5018,4.501,4.5005,4.5024,4.5018,4.4996,4.5006,4.4981,4.4979,4.497,4.4966,4.4965,4.4964,4.4961,4.4961,4.4921,4.4921,0,0,4.502,4.502,4.5007,4.5004,4.5009,4.5007,4.5005,4.498,4.4975,4.4966,4.4965,4.4964,4.4961,4.496,4.4921,4.4921,0,0,0,4.5023,4.502,4.5016,4.5005,4.5001,4.5006,4.5004,4.4976,4.4975,4.4964,4.4963,4.496,4.496,4.4921,4.4921,4.4912,0,0,0,4.5024,4.5023,4.5017,4.5016,4.5002,4.4989,4.5001,4.4977,4.4974,4.4963,4.496,4.496,4.4921,4.4921,4.4913,4.4908,0,0,0,4.5026,4.5023,4.502,4.5016,4.5007,4.4989,4.4987,4.4976,4.4973,4.4961,4.496,4.4922,4.4921,4.4914,4.4909,4.4898,0,0,0,4.5028,4.501,4.5019,4.4999,4.5007,4.4985,4.4987,4.4969,4.4958,4.496,4.4921,4.4921,4.4914,4.4909,4.4899,4.4889,4.4885,0,0,4.5005,4.5008,4.4996,4.5003,4.498,4.4988,4.4963,4.4951,4.4949,4.493,4.4929,4.4913,4.4909,4.4898,4.4863,4.486,0,0,0,4.4988,4.498,4.4974,4.4964,4.4956,4.4949,4.4941,4.4937,4.4922,4.494,4.4906,4.4904,4.4897,4.4893,4.489,4.4885,4.4919,4.4919,4.4919,4.4954,4.4955,4.4936,4.4934,4.4925,4.4919,4.4911,4.4904,4.4905,4.4898,4.4892,4.4871,4.4866,4.4864,4.4858,4.4887,4.4887,4.4887,4.4887,4.4921,4.4909,4.4915,4.4898,4.4899,4.4884,4.4878,4.488,4.4867,4.4875,4.4869,4.4878,4.486,4.4856,4.4886,4.4886,4.4886,4.4887,4.4887,4.4898,4.4893,4.489,4.4878,4.4868,4.4867,4.4854,4.4855,4.4855,4.485,4.4844,4.4844,4.4845,4.4847,4.4847,4.4847,4.4847,4.4847,4.4847,4.4876,4.4874,4.4864,4.4856,4.4851,4.4844,4.484,4.4835,4.4829,4.483,4.483,4.4833,4.4859,4.4865,4.4846,4.4846,4.4846,4.4846,4.4846,4.4841,4.485,4.4835,4.483,4.4822,4.4813,4.4815,4.4805,4.48,4.4795,4.4799,4.4819,4.482,4.4822,4.4827,4.4799,4.4799,4.4799,4.4799,4.4822,4.4824,4.481,4.4803,4.4796,4.4797,4.478,4.4777,4.4775,4.4773,4.4777,4.4785,4.4787,4.4787,4.479,4.4795,4.4759,4.4759,4.4759,4.4801,4.4803,4.4789,4.4789,4.4784,4.4779,4.4763,4.4754,4.4753,4.4757,4.4771,4.4773,4.4785,4.4788,4.4791,4.4795,4.4804,0,0]}]]